Theta_e
309 309 309 309 309 309 309 309 310 310 310 311 311 312 312 312 312 309 306 310 311 305 305 308 307 304 304 301 297 303 300 302 299 294 294 293 291 294 291 296 293 290 287 287 287 282 279 301 298 291 294 297 298 297
308 308 308 308 309 309 309 309 309 309 310 310 311 312 312 312 312 311 305 312 312 310 305 308 308 309 310 309 304 303 301 301 301 295 296 295 291 292 291 287 298 289 293 289 290 286 298 302 298 302 302 297 298 296
309 309 308 308 308 309 309 309 309 309 310 310 311 312 312 312 312 310 305 308 310 309 306 305 305 311 312 312 313 301 304 310 307 308 300 296 291 295 289 291 293 298 301 295 294 297 300 303 302 303 304 302 302 302
308 309 309 308 308 308 308 309 309 309 309 310 311 311 312 311 311 310 306 310 309 309 300 303 313 311 315 312 315 312 310 312 310 306 298 297 294 299 294 296 295 298 300 295 295 299 302 303 302 303 304 304 303 304
308 308 309 309 309 309 308 308 309 309 309 310 311 312 311 311 310 309 308 310 311 308 301 302 309 311 312 314 311 311 311 309 304 300 299 298 300 299 300 298 296 298 299 295 292 302 301 301 303 305 304 303 303 302
308 308 309 309 309 309 309 309 308 309 310 311 312 311 311 310 310 309 309 314 318 320 307 298 308 309 312 313 311 309 310 310 306 302 301 302 305 302 295 293 300 303 304 305 300 304 305 306 308 307 305 304 305 302
308 308 308 309 309 309 309 309 309 309 309 310 310 310 310 310 310 309 307 311 310 319 306 301 302 310 313 311 310 308 309 306 306 303 303 302 302 304 297 293 301 304 305 305 307 306 301 304 302 305 305 305 306 304
308 308 308 309 309 309 309 309 309 309 309 309 309 310 310 310 308 310 315 312 311 311 308 300 301 305 313 306 304 310 306 307 307 304 304 302 303 303 294 301 304 307 307 306 307 306 305 304 304 302 305 304 303 301
308 308 309 309 309 309 309 309 309 309 309 309 310 310 313 313 313 312 312 313 314 313 303 304 299 297 309 306 306 306 307 299 305 300 301 303 299 294 298 298 304 306 307 305 308 306 305 303 303 303 303 303 302 300
308 308 309 309 309 309 309 309 308 308 309 309 313 312 312 313 316 316 314 310 310 311 308 302 307 301 306 305 303 302 304 300 295 300 304 298 294 295 298 301 301 305 309 308 302 302 303 301 301 303 302 301 303 305
308 308 309 309 309 309 309 308 308 308 311 310 305 306 308 312 314 312 307 306 307 303 307 307 306 301 308 300 300 304 299 300 293 297 297 296 286 292 298 299 301 304 305 304 305 305 305 302 303 304 304 305 305 305
308 308 308 308 308 309 308 308 308 309 308 307 304 306 307 311 313 306 303 305 302 299 305 303 304 306 307 309 301 301 296 298 291 302 296 285 290 295 298 299 300 301 303 303 304 304 305 306 306 306 306 307 306 306
306 306 306 307 308 308 308 308 308 308 308 310 304 305 310 307 296 298 295 298 299 303 304 304 301 304 307 307 301 298 293 292 302 294 285 287 294 297 299 300 301 303 303 302 302 304 305 305 308 306 305 306 306 305
306 306 306 307 308 308 309 308 309 309 308 305 306 291 298 300 302 302 301 302 306 306 305 304 303 303 305 301 300 294 298 297 287 284 285 292 294 297 299 301 301 300 302 302 302 303 304 305 305 307 306 307 307 306
306 306 306 308 309 309 308 308 309 312 309 305 306 293 300 305 307 307 308 307 308 308 306 303 303 304 301 298 297 291 288 286 286 286 290 294 296 298 298 299 300 300 300 300 301 301 303 306 305 305 306 306 306 308
306 306 310 309 307 307 307 309 313 316 312 306 305 301 304 305 305 305 305 305 309 308 307 305 301 298 295 294 290 286 286 284 288 292 295 297 296 297 298 299 300 300 299 299 299 301 302 304 304 305 305 305 306 309
305 307 309 307 306 306 308 308 314 310 307 306 305 309 307 306 305 306 308 307 311 306 299 302 295 292 297 291 290 292 288 291 294 296 297 296 295 296 297 297 297 298 299 298 299 301 303 306 306 305 303 305 306 307
304 309 308 306 305 308 311 313 311 308 303 306 303 308 308 308 306 307 310 311 309 306 305 300 301 294 290 288 289 294 296 298 298 295 295 296 297 297 298 297 297 298 299 299 301 304 305 304 304 303 303 304 307 306
303 304 304 304 304 303 305 310 314 303 305 308 308 310 308 309 311 311 312 312 312 312 306 301 295 293 293 297 296 298 297 295 293 294 296 296 297 297 297 298 298 297 299 299 300 302 303 304 304 305 306 305 305 305
304 304 304 305 305 306 305 308 318 307 303 308 309 307 309 308 311 311 311 310 309 306 300 297 297 299 300 302 301 298 296 296 294 292 293 295 297 297 297 297 296 297 297 298 300 299 303 303 305 305 306 304 304 302
305 310 309 308 308 307 307 307 308 309 309 307 309 308 307 310 307 308 308 310 305 301 299 301 300 304 306 304 301 300 297 296 294 294 293 292 295 296 297 298 298 296 295 295 296 300 300 302 305 306 302 301 304 303
305 309 309 312 307 308 306 310 307 310 308 307 307 308 306 304 306 308 309 305 302 303 304 304 304 304 303 301 299 299 299 298 298 296 295 295 294 294 294 296 295 293 294 295 296 297 297 302 304 304 302 299 296 295
305 306 306 306 302 299 297 309 304 307 303 305 307 304 304 305 308 311 305 305 305 308 308 307 307 307 302 302 302 300 300 298 296 296 295 295 296 295 295 294 294 292 292 294 295 294 294 292 295 296 296 295 293 292
306 303 301 300 300 295 304 304 307 305 305 303 302 300 303 304 309 306 300 302 305 307 306 307 306 301 301 301 298 298 297 298 297 296 296 295 294 294 294 293 294 294 294 293 293 292 292 292 292 292 292 291 291 290
296 296 297 290 301 299 299 301 302 302 299 301 301 300 303 307 301 299 299 302 304 305 306 306 304 300 298 298 299 297 299 298 295 294 296 296 293 293 292 293 293 294 296 294 293 292 292 292 292 291 291 291 290 290
290 298 292 298 300 299 300 298 300 300 301 299 300 304 306 302 297 297 302 304 306 306 307 305 302 299 298 299 298 297 297 299 298 295 295 296 295 293 290 289 290 292 295 296 294 293 293 293 293 293 293 292 289 291
290 295 301 306 303 303 301 302 303 301 298 297 301 301 300 295 296 303 308 310 309 309 310 305 302 300 299 299 300 300 300 299 298 297 298 297 297 297 295 292 290 293 296 296 296 295 293 292 292 291 291 291 291 292
297 299 296 300 301 304 299 299 298 297 300 304 303 298 297 298 301 309 311 314 312 313 309 304 305 302 300 301 301 300 299 300 300 300 299 297 297 298 298 297 296 287 295 295 295 295 294 294 293 292 291 290 290 291
296 300 299 296 298 298 299 298 298 302 305 303 300 300 303 309 314 314 312 309 312 310 307 303 301 301 301 300 300 299 298 296 294 293 292 292 293 294 298 298 297 296 295 294 286 288 291 291 291 292 293 292 291 291
296 300 296 296 295 295 299 303 302 306 307 308 309 307 308 311 314 317 314 311 308 306 309 306 303 301 299 297 296 297 298 297 297 296 293 293 293 296 297 297 296 296 296 296 294 293 287 291 290 292 290 290 289 288
300 300 297 297 296 300 303 304 306 307 307 306 309 307 306 308 312 315 315 315 313 308 305 303 301 301 299 299 298 296 294 298 299 299 298 297 296 296 296 296 296 296 296 295 294 293 292 291 290 290 289 288 288 287
299 298 297 295 298 304 306 303 303 304 304 304 304 307 308 308 305 311 315 314 311 309 300 303 301 299 302 300 298 296 292 297 298 298 296 296 296 296 297 295 295 295 294 293 293 292 292 291 290 290 288 288 288 287
299 300 300 300 299 299 303 304 302 302 302 302 304 305 306 305 303 309 317 317 314 311 307 307 304 301 301 298 297 294 292 291 286 283 284 283 283 288 293 294 295 295 294 292 292 291 291 290 289 288 288 287 287 286
Wind_Speed
18 18 20 20 22 22 23 23 24 24 25 24 24 23 22 19 16 8 7 8 2 3 11 5 9 11 4 1 1 2 4 2 1 2 3 5 2 1 2 3 1 4 1 3 4 3 2 8 5 7 6 4 5 4
18 18 19 20 21 23 23 24 24 25 25 25 23 23 22 18 15 9 5 5 6 4 7 13 15 14 11 4 3 0 3 4 2 1 3 3 4 3 2 4 5 2 7 5 7 8 5 4 6 7 7 5 4 2
18 19 20 20 21 23 24 24 25 26 26 27 24 23 22 18 13 7 5 5 4 4 8 6 9 16 10 7 5 5 2 3 3 3 1 2 2 1 2 5 5 4 5 3 4 4 2 3 5 6 6 10 8 7
17 19 20 21 22 23 24 25 26 27 28 29 26 24 22 19 14 7 4 3 3 4 4 6 10 9 2 7 7 7 6 3 2 1 2 2 1 2 4 4 3 5 3 7 6 6 8 6 8 11 8 9 8 7
17 19 20 21 22 23 25 26 27 28 29 31 28 26 23 19 14 6 6 5 5 2 4 8 15 17 13 8 10 8 7 5 3 2 2 3 3 3 6 6 8 4 8 7 7 7 7 7 9 10 8 9 10 8
17 18 20 21 22 23 24 26 27 28 30 34 31 26 22 16 9 3 2 3 2 3 2 4 5 8 8 9 8 6 5 4 4 5 4 4 3 7 4 6 5 10 9 8 10 8 7 2 10 10 13 11 8 9
18 19 19 21 22 24 25 26 28 29 32 35 34 26 19 12 3 3 1 3 7 3 2 4 5 5 5 6 3 3 4 3 4 5 5 4 5 6 5 11 8 11 15 12 8 5 4 7 7 14 7 8 9 7
18 20 20 21 22 24 25 26 28 29 33 37 35 26 18 6 6 3 1 5 4 2 3 3 5 2 8 4 6 4 3 1 1 5 5 5 3 1 4 9 10 10 9 9 8 5 7 6 8 3 5 7 8 8
18 19 21 22 22 23 25 26 28 28 34 37 35 24 1 2 2 1 2 1 2 2 4 4 6 5 5 2 2 2 3 2 4 5 7 4 5 1 15 23 20 8 3 3 1 6 13 7 9 9 8 7 5 9
18 20 21 23 23 23 24 25 26 28 34 34 10 3 3 3 12 9 1 3 3 2 2 2 2 4 2 2 2 1 2 4 3 5 0 2 6 17 22 20 23 27 9 3 2 7 12 6 5 8 5 10 8 6
18 20 21 23 24 23 25 24 23 26 14 7 7 4 8 17 3 3 3 4 3 3 1 2 5 4 4 2 3 1 4 3 2 4 2 4 5 14 21 18 20 22 19 20 19 17 14 6 4 5 8 8 10 11
19 19 21 22 25 24 25 22 17 9 6 8 5 7 5 5 3 4 4 3 3 2 3 4 6 4 1 3 3 2 2 2 6 4 1 4 4 12 18 22 20 21 21 20 16 18 19 22 11 4 7 6 7 9
20 22 23 22 25 24 24 19 16 15 18 3 3 5 3 4 6 5 4 4 4 4 4 7 10 7 3 2 2 0 2 5 5 3 3 2 7 11 14 12 17 16 17 20 23 19 17 19 19 8 13 9 13 11
20 23 24 24 25 23 20 18 18 12 4 4 4 6 2 3 3 4 2 2 3 4 6 7 6 5 2 2 2 3 2 6 5 2 4 4 11 15 14 12 13 16 15 15 16 17 17 18 15 13 9 8 6 11
20 22 26 21 15 16 21 25 25 3 4 5 3 3 4 4 3 4 1 2 3 4 6 6 4 3 5 5 5 4 6 4 4 3 6 8 14 15 15 12 13 13 14 16 15 14 15 13 13 16 11 10 13 11
19 20 4 9 18 26 30 21 6 4 4 4 5 4 5 5 4 4 4 3 3 5 3 4 5 4 7 3 4 5 5 4 4 6 10 12 14 13 11 12 13 13 14 14 14 16 14 13 11 10 12 11 14 5
14 6 15 17 24 29 32 5 4 6 4 4 4 5 1 3 3 3 3 6 4 4 2 3 5 3 1 3 2 2 1 6 9 9 7 8 12 12 13 16 15 17 15 16 16 17 14 11 5 3 7 14 13 6
6 10 17 23 18 16 4 4 5 4 5 5 5 2 4 1 3 3 4 5 3 2 1 3 1 1 3 3 3 4 6 5 5 7 8 10 15 14 13 14 16 18 14 15 13 10 9 6 4 5 9 9 9 6
12 16 23 25 8 5 5 4 3 4 5 5 6 3 2 2 2 6 4 4 3 2 2 2 3 1 2 1 3 5 5 6 7 8 8 13 13 15 14 16 11 16 14 15 13 6 6 7 7 7 7 10 7 2
24 23 24 19 7 4 6 5 3 4 4 3 4 4 1 2 3 3 4 3 3 3 3 3 2 2 2 2 3 5 6 6 5 6 8 8 9 13 12 11 11 13 12 16 12 7 5 5 4 6 9 9 7 8
11 2 8 6 5 6 6 5 4 4 4 2 4 4 3 2 4 3 2 2 2 2 3 2 2 4 4 4 5 4 6 3 4 4 6 8 10 10 10 10 12 10 10 10 11 10 11 8 6 7 9 7 8 10
5 10 4 6 4 5 6 5 5 6 3 4 6 6 4 1 3 2 3 1 3 2 1 1 3 4 1 6 7 7 4 4 7 4 6 9 9 9 10 9 10 10 11 12 12 11 12 12 9 9 10 11 14 12
7 4 5 4 3 3 8 5 4 5 4 2 3 3 1 2 3 3 2 2 3 2 2 3 6 1 6 6 10 8 6 6 4 4 5 6 7 7 8 9 9 10 10 10 10 10 10 13 13 12 11 13 11 12
2 3 4 3 6 5 6 5 5 3 3 4 3 3 3 3 3 2 2 3 3 4 3 3 4 3 4 5 7 6 5 5 4 4 4 5 7 8 9 8 8 9 10 9 9 10 11 11 13 12 12 13 13 12
3 5 3 5 5 5 7 10 11 5 5 6 5 2 2 2 1 2 1 4 5 2 2 2 2 4 1 5 7 6 5 4 4 3 4 5 6 6 7 8 8 9 8 7 9 10 10 10 11 12 14 13 15 15
4 5 6 6 5 6 4 5 5 5 5 3 0 1 2 0 2 3 2 4 2 3 3 1 2 2 4 7 5 4 5 4 3 4 4 4 5 6 7 9 9 8 8 6 6 8 10 11 11 12 11 11 9 11
5 7 7 7 5 5 3 3 9 3 3 1 2 2 1 3 3 3 3 2 2 5 4 4 3 3 4 8 6 6 5 4 2 4 4 3 3 5 3 3 6 4 4 6 7 8 9 9 9 9 9 8 7 7
7 5 11 8 4 2 4 3 4 4 5 3 4 3 3 2 2 3 2 3 6 3 6 6 3 3 4 7 7 8 6 6 8 5 4 5 5 5 4 3 3 2 1 3 3 4 4 4 4 5 6 5 4 3
5 6 10 16 12 8 7 7 8 7 7 2 4 5 1 2 2 3 3 5 6 5 5 7 6 6 6 4 4 6 6 5 5 8 4 1 3 5 5 6 5 4 3 3 3 5 6 5 5 4 6 6 9 9
9 9 12 16 17 14 9 7 8 7 3 4 2 5 4 2 4 4 5 5 6 5 4 5 5 3 3 8 7 8 7 4 1 2 1 2 3 3 3 4 2 3 1 3 6 3 3 3 8 9 10 8 8 8
5 5 8 11 14 11 11 11 10 10 8 8 5 5 4 3 2 2 3 3 4 4 6 6 6 5 3 2 6 7 7 6 5 3 2 3 5 4 4 4 4 4 4 5 5 5 7 7 7 8 9 9 10 9
6 10 9 7 9 10 8 9 11 9 5 5 7 5 3 3 5 4 5 5 4 4 6 7 7 7 6 7 6 5 8 7 5 6 8 7 6 6 1 4 4 4 5 6 6 6 8 7 5 6 7 9 8 8
11 10 12 10 10 12 8 6 6 8 8 8 8 6 6 6 5 3 3 3 4 4 6 5 7 9 10 10 9 8 9 8 8 6 5 4 4 6 7 6 3 4 5 5 5 6 7 8 7 8 8 8 8 8
Wind_Direction
345 342 341 340 339 338 340 340 338 333 331 333 334 332 335 338 343 343 274 270 234 251 290 276 327 321 330 259 222 333 356 4 285 212 230 271 213 51 193 262 196 197 245 262 334 2 288 164 232 183 199 164 176 253
340 338 336 336 336 337 337 336 333 330 327 329 330 328 329 332 335 338 275 330 334 233 266 296 276 272 268 282 140 58 236 184 197 36 6 16 329 322 307 279 129 267 182 201 174 214 225 194 155 153 155 185 204 205
336 335 333 333 335 334 333 333 332 328 324 325 328 326 325 325 325 318 289 314 306 270 283 257 253 266 213 216 170 134 335 8 51 132 167 253 265 23 283 281 303 246 155 164 3 305 299 262 198 177 173 194 200 213
330 331 331 331 332 330 329 331 331 326 322 322 326 326 323 319 318 296 258 301 284 278 277 288 354 351 235 193 146 153 153 121 134 156 223 227 266 202 238 235 303 258 210 214 237 242 262 198 197 193 241 181 174 217
326 326 328 329 328 327 327 328 327 325 320 320 325 326 324 318 315 274 240 253 246 271 300 299 305 279 274 177 179 167 155 152 175 286 241 218 239 278 273 282 264 235 263 229 232 247 212 218 206 216 202 193 194 190
321 323 324 325 326 325 325 325 325 323 319 319 322 324 321 314 324 252 271 186 297 260 315 308 317 276 296 162 171 197 175 176 175 175 202 228 265 293 240 247 245 296 287 193 232 232 185 175 32 245 217 212 193 183
319 320 321 321 323 322 323 324 325 324 318 317 317 321 313 304 270 268 5 289 332 318 280 292 302 328 187 153 206 194 194 226 196 225 214 205 228 237 261 272 291 252 259 261 231 180 200 176 186 226 206 192 189 201
316 317 318 320 320 321 322 324 325 322 317 314 313 316 305 279 267 277 201 229 323 282 266 271 271 313 14 327 340 350 70 110 46 241 264 239 276 255 275 264 258 260 259 257 252 184 192 176 171 165 215 185 181 192
312 314 316 318 319 319 321 323 323 320 316 313 309 315 138 195 264 37 156 265 218 301 323 314 354 358 329 268 152 319 4 17 284 232 243 220 244 89 356 351 315 274 294 278 350 6 314 226 190 189 205 209 172 58
310 312 314 315 318 320 320 322 324 319 313 309 306 309 156 30 321 305 103 154 172 185 220 261 35 318 303 289 283 111 227 246 283 253 241 34 101 358 357 340 4 346 296 236 241 211 259 274 236 194 176 137 160 135
309 310 311 312 315 320 320 321 325 322 313 343 349 305 320 301 279 220 247 188 186 142 298 293 223 249 224 233 268 321 330 342 270 284 56 30 17 344 335 342 354 348 344 11 13 3 329 230 233 196 149 185 164 168
308 310 309 309 310 315 316 317 322 325 326 291 295 296 266 268 243 290 350 48 82 20 228 218 293 256 156 95 36 12 255 236 250 328 320 58 306 316 328 344 349 348 345 348 351 359 355 350 351 311 203 202 188 165
311 313 309 306 305 312 308 307 310 279 292 213 206 239 217 263 22 0 344 21 354 308 317 338 326 301 123 117 125 18 257 245 321 28 47 193 299 320 318 328 328 327 333 349 346 343 339 340 322 13 359 320 162 170
308 310 307 300 307 300 299 307 312 322 283 258 250 310 201 238 225 71 43 10 303 307 342 339 316 303 342 111 70 266 295 15 37 357 22 323 324 313 318 317 319 324 334 326 323 324 317 309 314 312 348 348 180 176
309 309 299 301 278 305 317 330 319 266 256 262 249 255 247 321 37 72 20 348 360 343 329 327 303 15 23 31 27 18 344 35 19 326 298 301 310 310 313 322 323 322 332 323 317 305 302 284 301 309 311 332 328 225
315 308 260 344 342 338 324 324 275 211 229 238 235 280 278 310 19 30 16 340 12 4 344 343 10 26 51 27 21 24 352 335 322 289 301 315 321 340 346 332 328 325 325 319 311 297 296 279 263 271 296 304 315 240
314 240 322 336 343 326 308 261 243 224 246 247 238 237 256 28 4 345 12 37 30 45 30 333 27 17 218 308 51 87 337 287 300 311 321 3 348 341 343 339 334 325 322 318 306 296 290 268 256 324 304 285 292 253
246 293 324 325 340 309 276 215 255 255 256 245 272 355 64 15 353 323 80 46 46 49 1 65 33 43 15 5 319 318 296 298 10 353 347 0 352 345 343 337 328 327 318 314 320 339 19 17 20 325 315 302 280 260
291 295 294 295 302 295 282 267 240 271 271 331 322 13 351 283 17 89 102 99 76 103 76 42 67 2 26 7 270 292 18 21 0 352 352 351 349 342 336 339 339 340 341 329 320 334 356 351 14 337 317 334 287 328
290 284 275 271 223 253 263 247 213 265 281 307 324 275 265 271 128 118 85 64 19 102 75 49 46 353 261 286 34 46 53 30 353 342 351 343 345 335 338 342 348 343 339 334 355 11 347 360 343 342 351 343 12 34
286 256 314 121 198 225 285 292 259 268 297 300 308 287 269 243 112 136 103 34 80 33 54 98 155 249 248 100 92 74 69 20 17 37 341 336 335 334 336 342 354 354 351 346 346 351 4 6 4 21 50 29 46 61
261 301 289 235 254 231 236 236 261 318 280 257 285 252 249 213 115 117 155 91 70 81 78 324 271 278 74 93 94 85 77 14 51 57 0 330 341 347 349 8 360 356 356 1 0 7 11 18 34 46 54 57 49 56
304 228 217 261 269 278 262 276 246 221 243 268 331 266 219 83 98 127 94 92 95 104 157 234 262 266 100 98 115 88 79 59 45 39 4 344 347 358 13 8 3 2 357 7 5 10 18 12 30 40 43 50 48 50
126 260 256 244 208 259 268 227 224 245 250 252 262 330 310 115 129 155 186 149 119 162 187 255 286 100 107 91 83 71 53 76 63 54 9 357 5 12 22 11 10 5 11 21 25 30 32 36 39 48 52 58 58 61
264 244 199 256 255 241 262 250 227 235 250 266 254 276 111 127 123 234 157 151 163 189 186 83 315 93 116 95 100 98 81 65 63 59 30 39 27 17 32 26 24 16 3 20 39 44 50 53 56 60 66 68 74 74
247 234 197 229 222 221 271 328 10 10 343 3 240 108 64 36 226 226 159 124 148 143 97 83 56 74 79 91 87 92 91 87 107 82 60 56 45 37 37 28 28 23 7 27 50 49 52 53 56 63 68 71 73 81
238 250 223 227 272 297 291 301 312 316 340 296 339 10 145 223 225 84 87 66 108 120 121 82 47 70 91 118 111 111 121 150 135 122 124 161 112 101 65 28 33 39 346 355 33 57 59 64 66 67 66 61 64 73
237 273 268 287 280 309 307 310 305 280 267 257 199 179 242 203 107 142 133 146 96 118 130 136 176 92 74 128 149 151 161 177 157 170 202 180 141 142 172 135 115 123 314 342 355 96 80 87 94 95 94 95 84 69
234 242 267 277 286 289 261 251 256 258 283 89 305 276 228 44 103 122 149 143 159 158 187 178 158 144 152 141 109 103 92 96 82 118 139 287 257 165 180 158 179 179 167 130 52 26 13 13 15 337 80 74 59 50
230 228 251 253 257 258 264 259 262 270 328 289 300 298 252 162 159 160 173 164 169 192 202 114 137 167 177 156 138 121 118 124 132 173 128 68 79 62 67 109 141 135 156 105 133 132 347 330 53 52 54 52 56 55
260 247 247 244 256 261 259 263 276 269 258 261 230 255 253 186 165 155 158 174 187 168 138 142 145 133 140 172 136 151 140 138 150 182 288 298 99 77 60 54 68 63 78 85 69 68 75 70 65 64 65 63 59 61
216 221 227 236 253 240 224 236 248 263 256 261 261 244 148 175 201 190 187 177 208 193 167 162 154 143 124 111 93 57 90 114 100 74 34 28 23 347 276 97 98 100 80 64 58 62 66 66 73 77 72 73 79 86
237 246 250 236 246 278 270 235 248 248 247 241 243 238 246 215 205 165 139 166 196 207 155 143 115 122 123 119 108 93 80 84 86 82 87 66 31 24 41 20 36 65 63 68 85 89 81 81 78 80 79 78 78 78